Regional Weather Roundup
Issued by NWS

Home | Current Version | Previous Version | Text Only | Print | Product List | Glossary On
Versions: 1 2 3 4 5 6 7 8 9 10 11 12 13 14 15 16 17 18 19 20 21 22 23 24 25 26 27 28 29 30 31 32 33 34 35 36 37 38 39 40 41 42 43 44 45 46 47 48 49 50
000
ASUS43 KMKX 042121
RWRWI

WISCONSIN REGIONAL WEATHER ROUNDUP
NATIONAL WEATHER SERVICE MILWAUKEE/SULLIVAN WI
400 PM CDT TUE AUG 04 2015

NOTE: "FAIR" INDICATES FEW OR NO CLOUDS BELOW 12,000 FEET WITH NO
SIGNIFICANT WEATHER AND/OR OBSTRUCTIONS TO VISIBILITY.

WIZ001-002-006>008-014>016-023>028-042200-
NORTHWEST WISCONSIN

CITY           SKY/WX    TMP DP  RH WIND       PRES   REMARKS
SUPERIOR ARPT  MOSUNNY   71  54  54 NE9       29.97S
ASHLAND        PTSUNNY   71  56  58 NE12      29.98F
HAYWARD        PTSUNNY   74  52  46 N9        29.97F
SIREN          MOSUNNY   74  50  42 NW9       29.97S
CUMBERLAND     PTSUNNY   72  52  49 NW6       29.98S
RICE LAKE      PTSUNNY   75  52  45 NW3       29.98F
CHETEK         CLOUDY    75  55  48 NW3       29.97S
LADYSMITH      CLOUDY    74  53  47 NW6       29.99S
EAU CLAIRE     PTSUNNY   78  53  41 N7        29.96F
MENOMONIE      MOSUNNY   79  49  35 W8        29.98S
NEW RICHMOND   PTSUNNY   79  47  32 W12       29.98S
OSCEOLA        MOSUNNY   79  52  38 W8        29.99S
$$

WIZ003>005-009-010-017-018-042200-
NORTH CENTRAL WISCONSIN

CITY           SKY/WX    TMP DP  RH WIND       PRES   REMARKS
MANITOWISH WTR PTSUNNY   68  51  55 N6        29.99S
ARBOR VITAE    MOSUNNY   72  53  52 N9        29.98F
WOODRUFF       MOSUNNY   72  53  52 N9        29.98F
RHINELANDER    PTSUNNY   71  51  49 VRB7      29.99S
EAGLE RIVER    PTSUNNY   69  48  47 NW9       29.98F
LAND O LAKES   MOSUNNY   69  48  47 N9G20     30.00S
PHILLIPS       MOSUNNY   70  53  54 NW6       29.97F
TOMAHAWK       PTSUNNY   70  51  52 NW9       29.98S
MEDFORD        CLOUDY    71  52  51 W10       29.98F
MERRILL        NOT AVBL
$$

WIZ029-030-035-036-043>047-042200-
CENTRAL WISCONSIN

CITY           SKY/WX    TMP DP  RH WIND       PRES   REMARKS
WAUSAU         CLOUDY    74  49  41 W13       29.96S
MOSINEE        CLOUDY    73  52  46 NW12      29.99S
MARSHFIELD     PTSUNNY   78  51  38 NW13G18   29.98F
STEVENS POINT  CLOUDY    72  52  49 NW6       29.98S
WAUPACA        PTSUNNY   78  51  40 W12       29.96S
WAUTOMA        MOSUNNY   79  50  36 NW10      29.97F
WISC RAPIDS    CLOUDY    77  49  37 NW13      29.99S
CAMP DOUGLAS   MOSUNNY   79  54  41 NW10      29.97F
$$

WIZ011>013-019>022-031-037>040-048>050-042200-
NORTHEAST WISCONSIN

CITY           SKY/WX    TMP DP  RH WIND       PRES   REMARKS
ANTIGO         CLOUDY    71  50  47 NW8       29.98R
SHAWANO        CLOUDY    77  49  36 W6        29.95S
OCONTO         MOSUNNY   76  50  39 NW12      29.92S
STURGEON BAY   SUNNY     73  54  49 NW5       29.96S
GREEN BAY      MOSUNNY   78  53  41 W15       29.94S
MANITOWOC      PTSUNNY   79  50  36 MISG      29.94F
APPLETON       PTSUNNY   73  46  38 NW10      29.96S
CLINTONVILLE   CLOUDY    77  46  33 NW9       29.94F
OSHKOSH        MOSUNNY   77  52  41 W14G22    29.95F
$$

WIZ032>034-041-042-053>061-042200-
SOUTHWEST WISCONSIN

CITY           SKY/WX    TMP DP  RH WIND       PRES   REMARKS
LA CROSSE      SUNNY     81  51  35 NW10      29.97F HX  80
SPARTA         MOSUNNY   78  47  33 NW12      29.98F
VIROQUA        MOSUNNY   75  54  46 NW5       30.01S
BOSCOBEL       PTSUNNY   83  52  34 NW7       29.98F HX  82
PRAIRIE DU CHI PTSUNNY   78  48  33 W8        29.97F
PLATTEVILLE    PTSUNNY   77  55  45 NW8       29.99F
$$

WIZ056-057-062-063-064-067-068-042200-
SOUTH CENTRAL WISCONSIN

CITY           SKY/WX    TMP DP  RH WIND       PRES   REMARKS
REEDSBURG      MOSUNNY   78  51  39 NW8       29.97F
BARABOO/DELLS  PTSUNNY   79  46  31 NW7       29.98S
LONE ROCK      MOSUNNY   80  49  33 NW8       29.98F
MINERAL POINT  PTSUNNY   79  48  34 NW6       30.00F
MADISON        PTSUNNY   78  53  41 NW7       29.97F
MIDDLETON      MOSUNNY   78  49  35 NW5       29.99F
WATERTOWN      MOSUNNY   78  55  44 W7        29.98S
MONROE         MOSUNNY   75  52  43 NW8       29.99F
JANESVILLE     MOSUNNY   79  48  34 W10       29.98F
$$

WIZ051-052-058>065-066-070>072-042200-
SOUTHEAST WISCONSIN

CITY           SKY/WX    TMP DP  RH WIND       PRES   REMARKS
MILWAUKEE      PTSUNNY   79  49  34 NW12      29.96S
WAUKESHA       MOSUNNY   77  48  36 NW14G21   29.99R
MILWAUKEE/TIMM MOSUNNY   79  45  29 W12       29.97S
RACINE         MOSUNNY   80  51  36 W8        29.98R HX  80
BURLINGTON     PTSUNNY   78  47  33 W10G16    29.97F
KENOSHA        PTSUNNY   77  54  44 W9        29.97S
FOND DU LAC    PTSUNNY   80  53  39 W15       29.95F HX  80
SHEBOYGAN      SUNNY     77  52  41 NW14G20   29.95F
WEST BEND      PTSUNNY   77  50  38 W8        29.97S
JUNEAU         PTSUNNY   76  53  44 W9        29.98S
$$

LSZ147-162-042200-
LAKE SUPERIOR

STATION/POSITION TIME  TEMP    WIND        PRES    WAVE
                       AIR SEA DIR/SP/G            HT/PER
                 (UTC) (F)     (DEG/KT/KT) (MB)    (FT/S)
W MID LAKE BUOY  2050   58 58   60/  4/  6 1016.2R   0
DEVILS ISLAND    2100   65     340/  2/  4 1015.8R
PORT WING        2000   69      40/  7/ 10 1015.6R
SAXON HARBOR     2040   67      60/  7/  8 1015.2S
$$

LMZ867-665-643>646-042200-
LAKE MICHIGAN

STATION/POSITION TIME  TEMP    WIND        PRES    WAVE
                       AIR SEA DIR/SP/G            HT/PER
                 (UTC) (F)     (DEG/KT/KT) (MB)    (FT/S)
CHAMBERS ISLAND  2000   68      20/  3/  5 1013.5S
N MID LAKE BUOY  2050   63 70  300/  2/  4 1014.0R   0
NORTHPORT PIER   2000   65      90/  4/ 19 1014.2R
SISTER BAY       2018   73     340/  6/  7   N/A
ALGOMA LAKESHORE 2012          320/  8/ 12   N/A
KEWAUNEE LAKESHO 2000   74     320/  8/ 11 1013.4R
SHEBOYGAN LAKESH 2100   75     310/ 11/ 17 1014.1F
PORT WASHINGTON  2040   79     320/  6/ 18 1014.9S
ATWATER BUOY     2100   69 55  320/ 10/ 12 1015.8R
MILWAUKEE LAKESH 2100   76     300/  8/ 12   N/A
KENOSHA   LAKESH 2100   78     280/  9/ 15 1014.2R
$$

TC  - TEMPERATURE IN CELSIUS
VSB - VISIBILITY IN STATUTE MILES
WCI - WIND CHILL INDEX
HX  - HEAT INDEX



USA.gov is the U.S. government's official web portal to all federal, state and local government web resources and services.